www.pogodaiklimat.ru

Погода и климат >> Архив погоды >> Словения >> Порторож


ПОГОДА в Портороже

  • Прогноз погоды в Портороже
  • Монитор погоды в Портороже

АРХИВ ПОГОДЫ в Портороже

Время (UTC), дата Ветер
(напр.,м/с)
 
Видим.   Явления Облачность Т
(С)
Тd
(С)
f
(%)
Тe
(С)
Тes
(С)
Комфортность P
(гПа)
Po
(гПа)
Тmin
(С)
Tmax
(С)
R
(мм)
R24
(мм)
S
(см)
01 19.04 ЮВ 4
{6}
50 км н/о +7.7 +4.1 78 +4 +4 1028.6 1028.2
02 19.04 ЮВ 3
{5}
50 км н/о +7.5 +3.9 78 +5 +5 1028.6 1028.2
03 19.04 ЮВ 4
{5}
50 км н/о +7.7 +3.9 77 +4 +4 1028.6 1028.2
04 19.04 ЮВ 1
{4}
50 км ясно +6.6 +3.5 81 +6 +6 1028.9 1028.5
05 19.04 ЮВ 3
{4}
50 км ясно +6.3 +3.8 84 +3 +3 1029.2 1028.8
06 19.04 ЮВ 3
{4}
45 км н/о +9.9 +5.5 74 +8 +8 1029.4 1029.0 +5.8
07 19.04 ЮЗ 1
{1}
50 км ясно +14.8 +8.1 64 +15 +21 1029.5 1029.1
08 19.04 З 1
{2}
50 км ясно +16.7 +7.9 56 +18 +28 1029.7 1029.3
09 19.04 З 4
{5}
50 км ясно +19.0 +8.0 49 +20 +28 1029.7 1029.3
10 19.04 СЗ 3
{5}
50 км 1/1 1500 м
[Cu hum Ac trans]
+19.9 +5.2 38 +21 +32 комфорт 1029.5 1029.1
11 19.04 З 6
{7}
50 км 1/1 1500 м
[Sc]
+18.9 +7.5 47 +19 +24 1029.1 1028.7
12 19.04 СЗ 5
{7}
50 км 1/1 1500 м
[Cu hum]
+19.6 +5.5 40 +20 +27 1028.8 1028.4
13 19.04 СЗ 5
{7}
50 км 1/1 1500 м
[Cu hum]
+20.2 +5.2 37 +21 +27 комфорт 1028.6 1028.2
14 19.04 З 4
{6}
50 км 1/1 1500 м
[Cu hum]
+19.6 +2.0 31 +20 +26 1028.2 1027.8
15 19.04 З 4
{5}
50 км ясно +19.2 +3.4 35 +19 +23 1028.0 1027.6
16 19.04 З 3
{4}
50 км ясно +18.7 +4.7 40 +19 +21 1027.8 1027.4
17 19.04 ЮЗ 1
{3}
50 км ясно +18.8 +2.8 34 +20 +21 1027.5 1027.1
18 19.04 ЮВ 1
{2}
50 км ясно +16.3 +4.7 46 +17 +17 1027.7 1027.3 +20.8
19 19.04 ЮВ 4
{4}
50 км ясно +11.6 +5.5 66 +10 +10 1028.2 1027.8
20 19.04 ЮВ 4
{5}
50 км ясно +10.3 +5.0 70 +8 +8 1028.4 1028.0
21 19.04 ЮВ 4
{6}
50 км н/о +10.0 +4.6 69 +7 +7 1028.6 1028.2
22 19.04 ЮВ 5
{6}
50 км н/о +9.2 +4.2 71 +6 +6 1028.7 1028.3
23 19.04 ЮВ 5
{7}
50 км н/о +8.8 +3.8 71 +6 +6 1028.6 1028.2
00 20.04 ЮВ 5
{7}
50 км н/о +7.7 +3.6 75 +4 +4 1028.2 1027.8
01 20.04 ЮВ 5
{7}
50 км н/о +7.6 +3.4 75 +4 +4 1027.7 1027.3
02 20.04 ЮВ 5
{6}
50 км н/о +7.3 +3.3 76 +3 +3 1027.4 1027.0
03 20.04 ЮВ 5
{6}
50 км н/о +7.1 +3.5 78 +3 +3 1027.1 1026.7
04 20.04 ЮВ 5
{6}
50 км ясно +7.2 +3.5 77 +3 +3 1027.0 1026.6
05 20.04 ЮВ 5
{7}
50 км ясно +8.7 +4.0 72 +5 +6 1027.1 1026.7
06 20.04 ЮВ 4
{6}
50 км ясно +11.3 +5.3 67 +9 +11 1027.3 1026.9 +6.9
07 20.04 ЮВ 2
{4}
50 км ясно +15.9 +7.9 59 +16 +21 1027.5 1027.1
08 20.04 СЗ 2
{4}
50 км ясно +16.1 +9.1 63 +16 +25 1027.4 1027.0
09 20.04 СЗ 3
{4}
50 км ясно +17.7 +10.9 64 +18 +28 1027.2 1026.8
10 20.04 З 2
{5}
50 км ясно +21.5 +5.6 35 +22 +37 комфорт 1026.7 1026.3
11 20.04 С 5
{8}
50 км 1/1 1500 м
[Cu hum]
+23.9 +2.4 24 +23 +31 комфорт 1026.0 1025.6
12 20.04 СЗ 6
{9}
50 км 1/1 1500 м
[Cu hum]
+20.4 +8.9 48 +22 +27 комфорт 1025.8 1025.4
13 20.04 З 6
{9}
50 км 1/1 1500 м
[Cu hum]
+22.2 +3.6 30 +22 +27 комфорт 1025.6 1025.2
15 20.04 З 4
{6}
50 км ясно +21.6 +5.1 34 +22 +26 комфорт 1024.6 1024.2
16 20.04 ЮЗ 4
{5}
50 км ясно +21.1 +4.9 35 +22 +23 комфорт 1024.3 1023.9
17 20.04 ЮЗ 1
{4}
50 км ясно +20.3 +6.6 41 +22 +23 комфорт 1024.1 1023.7
18 20.04 Ю 1
{2}
50 км 1/0
[Ci sp]
+18.2 +5.6 44 +19 +19 1024.2 1023.8 +24.1
19 20.04 ЮВ 4
{5}
50 км ясно +13.6 +6.5 62 +12 +12 1024.9 1024.5
20 20.04 ЮВ 4
{5}
50 км ясно +12.2 +5.9 65 +10 +10 1024.9 1024.5
21 20.04 ЮВ 5
{6}
45 км н/о +11.4 +5.7 68 +9 +9 1025.2 1024.8
22 20.04 ЮВ 5
{7}
50 км н/о +10.7 +5.6 71 +8 +8 1024.8 1024.4
23 20.04 ЮВ 6
{8}
50 км н/о +10.7 +5.5 70 +8 +8 1024.4 1024.0
00 21.04 ЮВ 4
{6}
50 км н/о +9.7 +5.4 75 +7 +7 1024.2 1023.8
01 21.04 ЮВ 5
{6}
50 км н/о +9.9 +5.0 72 +7 +7 1023.6 1023.2
02 21.04 ЮВ 5
{6}
50 км н/о +9.8 +4.6 70 +7 +7 1023.1 1022.7
03 21.04 ЮВ 5
{6}
50 км н/о +9.5 +4.3 70 +6 +6 1022.5 1022.1
04 21.04 ЮВ 4
{5}
50 км 6/0
[Ac trans Cs]
+8.7 +4.1 73 +6 +6 1022.3 1021.9
05 21.04 ЮВ 3
{4}
50 км 8/0
[Ac trans Cs]
+8.6 +4.1 73 +6 +7 1022.3 1021.9
06 21.04 ЮВ 3
{4}
50 км 8/0
[Ac trans Cs]
+10.5 +4.9 68 +9 +10 1022.4 1022.0 +8.2
07 21.04 ЮВ 2
{3}
70 км 8/0
[Ac trans Cs]
+14.2 +6.1 58 +14 +18 1022.2 1021.8
08 21.04 штиль 0
{1}
50 км 8/0
[Ac trans Cs]
+16.9 +7.8 55 +17 +25 1021.9 1021.5
09 21.04 СЗ 3
{4}
50 км 8/0
[Cs]
+18.6 +8.7 52 +19 +28 1021.9 1021.5
10 21.04 З 4
{5}
50 км 5/0
[Ci sp]
+20.8 +4.8 35 +22 +31 комфорт 1021.5 1021.1
11 21.04 З 3
{6}
50 км 3/0
[Ci sp]
+20.1 +7.2 43 +21 +34 комфорт 1021.2 1020.8
12 21.04 ЮЗ 4
{6}
50 км 3/0
[Ci sp]
+20.5 +2.5 30 +21 +31 комфорт 1020.9 1020.5
13 21.04 ЮЗ 4
{7}
50 км 3/0
[Ci sp]
+20.6 +2.0 29 +21 +29 комфорт 1020.6 1020.2
14 21.04 ЮЗ 5
{8}
50 км 3/0
[Ci sp]
+20.0 +2.2 31 +20 +25 1020.2 1019.8
15 21.04 ЮЗ 5
{8}
50 км 3/0
[Ci sp]
+19.6 +4.1 36 +20 +23 1020.0 1019.6
16 21.04 ЮЗ 2
{4}
50 км 5/0
[Ci sp]
+18.3 +3.9 38 +19 +21 1019.6 1019.2
17 21.04 ЮЗ 1
{3}
50 км 6/0
[Ci sp]
+17.6 +4.1 41 +19 +19 1019.2 1018.8
18 21.04 В 1
{2}
50 км 4/0
[Ci sp]
+15.3 +5.3 51 +16 +16 1019.1 1018.7 +21.3
19 21.04 ЮВ 2
{4}
50 км 4/0
[Ci sp]
+12.0 +6.1 67 +11 +11 1019.7 1019.3
20 21.04 ЮВ 3
{4}
50 км 4/0
[Ci sp]
+11.4 +6.7 73 +10 +10 1019.9 1019.5
21 21.04 ЮВ 3
{4}
45 км н/о +10.1 +6.4 78 +8 +8 1019.7 1019.3
22 21.04 ЮВ 4
{5}
45 км н/о +9.2 +5.7 79 +6 +6 1019.5 1019.1
23 21.04 ЮВ 3
{5}
45 км н/о +8.6 +5.2 79 +6 +6 1019.4 1019.0
00 22.04 ЮВ 3
{5}
45 км н/о +8.0 +5.0 81 +5 +5 1019.1 1018.7
01 22.04 ЮВ 4
{5}
45 км н/о +7.4 +4.8 84 +4 +4 1018.8 1018.4
02 22.04 ЮВ 4
{6}
40 км н/о +6.8 +4.6 86 +3 +3 1018.2 1017.8
03 22.04 ЮВ 5
{7}
45 км н/о +7.4 +4.9 84 +3 +3 1017.8 1017.4
04 22.04 ЮВ 5
{6}
40 км 3/0
[Ci fib]
+6.9 +4.8 86 +3 +3 1017.4 1017.0
05 22.04 ЮВ 3
{5}
40 км 3/0
[Ci fib]
+6.8 +5.1 89 +4 +4 1017.5 1017.1
06 22.04 В 1 40 км 3/0
[Ci fib]
+9.9 +7.1 83 +9 +12 1016.9 1016.5 +6.6
07 22.04 З 1
{1}
40 км 3/0
[Ci]
+13.6 +8.6 72 +14 +20 1016.6 1016.2
08 22.04 СЗ 2
{4}
40 км 3/0
[Ci fib]
+16.6 +10.1 65 +17 +25 1016.2 1015.8
09 22.04 СЗ 5
{7}
40 км 3/1 1000 м
[Cu hum Ci fib]
+16.2 +10.0 67 +15 +21 1015.8 1015.4
10 22.04 СЗ 4
{6}
30 км 3/1 1000 м
[Cu hum Ci fib]
+16.6 +11.0 69 +16 +25 1015.0 1014.6
11 22.04 СЗ 5
{6}
40 км 3/1 1000 м
[Cu hum Ci fib]
+16.9 +10.1 64 +16 +23 1014.5 1014.1
12 22.04 З 3
{7}
40 км 3/1 1000 м
[Cu Sc Ci fib]
+18.7 +12.4 67 +20 +30 1014.1 1013.7
13 22.04 З 3 40 км 6/6 1200 м
[Cu Sc Ci fib]
+17.3 +11.3 68 +17 +22 1013.8 1013.4
14 22.04 ЮЗ 5 40 км 6/6 1200 м
[Cu Sc Ci fib]
+18.1 +10.8 62 +18 +20 1013.0 1012.6
15 22.04 СВ 2
{4}
40 км 9/5 1200 м
[Cu Sc Ac As Ci fib]
+18.7 +11.5 63 +20 +22 1012.4 1012.0
16 22.04 В 3 40 км 9/5 1200 м
[Cu Sc Ac As Ci sp]
+17.8 +11.6 67 +18 +19 1012.3 1011.9
17 22.04 С 1 30 км 9/5 1200 м
[Cu Sc Ac As Ci sp]
+16.3 +11.8 75 +17 +17 1012.0 1011.6
18 22.04 В 2
{3}
30 км 9/9 1200 м
[Cu Sc]
+16.1 +11.5 74 +16 +16 1012.3 1011.9 +19.1
19 22.04 штиль 0 30 км 9/9 1200 м
[Cu Sc]
+15.7 +11.5 76 +16 +16 1012.3 1011.9
20 22.04 В 1 30 км 9/9 1200 м
[Cu Sc]
+15.4 +10.8 74 +16 +16 1012.2 1011.8
21 22.04 ЮВ 2
{4}
26 км н/о +15.3 +10.9 75 +15 +15 1011.9 1011.5
22 22.04 ЮВ 2
{3}
24 км слаб. дождь н/о +14.6 +10.9 78 +14 +14 1011.3 1010.9
23 22.04 ЮВ 1
{4}
23 км в посл. час дождь н/о +13.7 +11.0 84 +14 +14 1010.7 1010.3
00 23.04 ЮВ 2
{5}
16 км слаб. ливневой дождь н/о +13.4 +10.9 85 +13 +13 1010.2 1009.8
01 23.04 В 4
{7}
13 км слаб. ливневой дождь н/о +14.3 +10.4 77 +13 +13 1009.3 1008.9
02 23.04 ЮВ 1
{3}
20 км слаб. дождь н/о +13.6 +10.7 83 +14 +14 1008.6 1008.2
03 23.04 Ю 1
{3}
19 км слаб. дождь н/о +13.5 +10.3 81 +14 +14 1008.9 1008.5
04 23.04 ЮВ 3 10 км слаб. дождь 10/10 1200 м
[Sc]
+12.8 +11.1 89 +11 +11 1008.3 1007.9
05 23.04 В 4 7000 м дождь 10/5 800 м
[Sc As op]
+13.0 +11.0 88 +11 +11 1007.9 1007.5
06 23.04 В 4
{7}
20 км слаб. дождь 10/10 800 м
[Sc]
+13.5 +10.6 83 +12 +12 1007.8 1007.4 +12.6 5
07 23.04 В 1
{5}
40 км в посл. час дождь 10/10 800 м
[Sc]
+14.0 +10.2 78 +14 +14 1007.4 1007.0
08 23.04 ЮВ 6 30 км 10/10 900 м
[Sc]
+15.3 +9.6 69 +14 +14 1007.2 1006.8
09 23.04 ЮВ 7
{11}
30 км {дождь} 10/10 900 м
[Sc]
+15.6 +9.6 67 +14 +14 1007.3 1006.9
10 23.04 ЮВ 8 40 км 10/10 900 м
[Cu Sc Ac inh]
+16.0 +10.1 68 +14 +14 1007.6 1007.2
11 23.04 ЮВ 7 40 км 10/10 900 м
[Cu Sc]
+16.1 +9.9 67 +15 +15 1007.3 1006.9
12 23.04 ЮВ 5
{10}
10 км дождь 10/10 1000 м
[Cu Sc]
+15.5 +11.0 75 +14 +14 1007.5 1007.1 0.1
13 23.04 ЮВ 5 20 км слаб. дождь 10/8 900 м
[Cu Sc As op]
+16.3 +11.9 75 +15 +16 1007.7 1007.3
14 23.04 ЮВ 5 15 км слаб. дождь 10/8 900 м
[Cu Sc As op]
+16.5 +12.1 75 +16 +16 1007.8 1007.4
15 23.04 ЮВ 4
{7}
6000 м дождь 10/5 600 м
[Cu Sc As op]
+14.8 +13.2 90 +14 +14 1008.1 1007.7
16 23.04 ЮВ 1 7000 м дождь 10/3 600 м
[Frnb As op]
+14.6 +13.2 91 +15 +15 1008.3 1007.9
17 23.04 ЮВ 2 20 км в посл. час дождь 10/6 900 м
[Cu Sc As op]
+14.7 +12.9 89 +14 +14 1008.4 1008.0
18 23.04 ЮВ 3
{5}
20 км {дождь} 9/6 1500 м
[Sc As op]
+14.7 +12.4 86 +14 +14 1008.5 1008.1 +17.6 7
19 23.04 ЮВ 4 10 км слаб. дождь 10/6 1200 м
[Cu Sc As op]
+14.6 +12.7 88 +13 +13 1009.4 1009.0
20 23.04 ЮВ 5 10 км слаб. дождь 10/6 600 м
[Cu Sc As op]
+14.8 +12.7 87 +13 +13 1009.6 1009.2
21 23.04 ЮВ 6
{10}
18 км ливневой дождь н/о +14.6 +12.7 88 +13 +13 1009.7 1009.3
22 23.04 ЮВ 5
{8}
19 км н/о +15.0 +12.6 86 +14 +14 1010.1 1009.7
23 23.04 ЮВ 4
{7}
13 км н/о +15.2 +12.9 86 +14 +14 1010.4 1010.0
00 24.04 ЮВ 6
{8}
14 км н/о +15.6 +13.1 85 +14 +14 1010.5 1010.1
01 24.04 ЮВ 4
{7}
12 км н/о +15.6 +13.1 85 +15 +15 1010.7 1010.3
02 24.04 ЮВ 5
{8}
12 км н/о +15.8 +13.1 84 +15 +15 1011.2 1010.8
03 24.04 ЮВ 4
{10}
8000 м ливневой дождь н/о +15.2 +13.4 89 +14 +14 1011.8 1011.4
04 24.04 ЮВ 5
{9}
15 км 10/6 1500 м
[Sc As op]
+15.5 +13.1 86 +14 +14 1012.2 1011.8
05 24.04 ЮВ 5 15 км 10/10 1380 м
[Sc]
+15.5 +13.3 87 +14 +14 1012.8 1012.4
06 24.04 ЮВ 4
{6}
20 км слаб. ливневой дождь 9/5 900 м
[Cu Sc Ac As]
+16.0 +13.3 84 +15 +16 1013.4 1013.0 +14.3 2
07 24.04 ЮВ 4
{7}
15 км 9/4 1500 м
[Sc Ac As]
+16.9 +13.9 82 +16 +17 1013.9 1013.5
08 24.04 ЮВ 6 15 км 9/4 800 м
[Cu Sc Ac As]
+17.6 +13.9 79 +17 +18 1014.6 1014.2
09 24.04 Ю 5
{10}
15 км {дождь} 8/3 700 м
[Cu hum Ac trans]
+19.3 +14.4 73 +21 +23 комфорт 1015.1 1014.7
10 24.04 ЮВ 6
{10}
15 км 6/3 750 м
[Cu med, cong Ac trans]
+20.4 +14.3 68 +23 +26 комфорт 1015.3 1014.9
11 24.04 Ю 4
{9}
15 км 6/4 900 м
[Cu med, cong Ac trans]
+21.0 +14.2 65 +24 +29 комфорт 1015.4 1015.0
12 24.04 ЮВ 5
{9}
20 км {ливн. осадки} 8/5 1200 м
[Cu med, cong Ci sp]
+21.2 +12.6 58 +23 +27 комфорт 1015.5 1015.1 0.0
13 24.04 Ю 5
{9}
20 км 8/6 1200 м
[Cu Sc Ci fib]
+21.1 +12.4 58 +23 +26 комфорт 1015.6 1015.2
14 24.04 ЮВ 5
{9}
20 км 4/4 1200 м
[Cu med, cong]
+22.1 +13.2 57 +25 +28 комфорт 1015.4 1015.0
15 24.04 Ю 5
{10}
20 км 3/1 1300 м
[Cu med, cong Ci fib]
+20.9 +13.1 61 +23 +26 комфорт 1016.1 1015.7
16 24.04 Ю 4
{8}
15 км 6/0
[Ci sp]
+20.6 +13.5 64 +23 +25 комфорт 1015.6 1015.2
17 24.04 ЮВ 5
{8}
15 км 5/1 1000 м
[Cu hum Ac trans Ci sp]
+19.0 +12.9 68 +20 +20 1015.8 1015.4
18 24.04 Ю 3
{5}
15 км 8/0
[Ac und Ci sp]
+17.6 +12.8 73 +18 +18 1016.5 1016.1 +22.1 0.0
19 24.04 ЮВ 4
{6}
10 км 6/0
[Ac As Ci sp]
+16.1 +12.6 80 +15 +15 1016.8 1016.4
20 24.04 ЮВ 2
{4}
10 км 8/0
[Ac As Ci sp]
+15.9 +12.6 81 +16 +16 1016.9 1016.5
21 24.04 В 1
{4}
13 км н/о +15.7 +12.6 82 +16 +16 1017.3 1016.9
22 24.04 штиль 0
{2}
13 км н/о +14.6 +12.4 87 +14 +14 1017.4 1017.0
23 24.04 С 1
{2}
9000 м н/о +14.2 +12.8 91 +14 +14 1017.7 1017.3
00 25.04 штиль 0
{2}
9000 м дымка н/о +13.0 +12.0 94 +12 +12 1017.5 1017.1
01 25.04 СЗ 2
{3}
7000 м дымка н/о +12.8 +12.4 97 +12 +12 1017.8 1017.4
02 25.04 В 1
{3}
7000 м дымка н/о +12.3 +11.6 95 +12 +12 1018.4 1018.0
03 25.04 В 2
{3}
12 км н/о +12.5 +11.6 94 +11 +11 1018.4 1018.0
04 25.04 ЮВ 4
{4}
12 км 1/0
[Ac trans]
+11.0 +10.2 95 +8 +8 1018.3 1017.9
05 25.04 ЮВ 3
{4}
20 км 1/0
[Ac trans]
+14.3 +11.8 85 +13 +14 1018.9 1018.5
06 25.04 ЮВ 5
{8}
18 км н/о +16.9 +13.4 80 +16 +16 1019.2 1018.8 +10.9
07 25.04 ЮВ 4
{6}
20 км 3/1 1300 м
[Cu hum Ci fib]
+18.9 +13.7 72 +20 +23 1019.4 1019.0
08 25.04 ЮВ 5
{7}
20 км 3/1 1300 м
[Cu hum Ci sp]
+20.3 +14.1 68 +23 +27 комфорт 1019.7 1019.3
09 25.04 ЮВ 4 20 км 3/3 800 м
[Cu Sc Ci sp]
+20.9 +13.9 64 +24 +30 комфорт 1020.0 1019.6
10 25.04 ЮВ 3 20 км 4/4 840 м
[Cu Sc Ci sp]
+22.0 +13.5 59 +25 +33 комфорт 1020.0 1019.6
11 25.04 Ю 4 20 км 4/4 1000 м
[Cu Sc Ci sp]
+22.1 +13.6 59 +25 +32 комфорт 1019.8 1019.4
12 25.04 ЮЗ 5
{7}
15 км 6/4 1080 м
[Cu hum Ci sp]
+21.3 +15.3 69 +24 +29 комфорт 1019.6 1019.2
13 25.04 ЮЗ 5
{7}
10 км 5/3 1200 м
[Cu hum Ci sp]
+21.8 +15.7 68 +25 +30 комфорт 1019.2 1018.8
14 25.04
{5}
10 км 4/1 1500 м
[Cu hum Ci sp]
+21.9 +15.8 68 1018.5 1018.1
15 25.04 З 2
{5}
10 км 6/1 1200 м
[Cu hum Ac trans Ci sp]
+19.7 +15.5 77 +22 +26 комфорт 1018.7 1018.3
16 25.04 СЗ 3
{4}
10 км 8/0
[Ac trans Cs]
+18.3 +15.0 81 +19 +21 1018.7 1018.3
17 25.04 СЗ 3
{5}
10 км 9/1 1200 м
[Cu hum Ac As Ci sp]
+16.2 +14.4 89 +16 +16 1018.7 1018.3
18 25.04 З 2
{4}
7000 м дымка 9/5 450 м
[Sc Ac As Ci sp]
+15.6 +14.3 92 +15 +15 1018.8 1018.4 +23.1
19 25.04 ЮЗ 1 6000 м дымка 9/6 480 м
[Sc Ac As]
+15.2 +14.1 93 +16 +16 1018.5 1018.1
20 25.04 ЮВ 1
{1}
6000 м дымка 6/3 900 м
[Sc Ac trans]
+14.9 +13.8 93 +15 +15 1018.3 1017.9
21 25.04 СЗ 1
{1}
4500 м дымка н/о +13.8 +13.3 97 +14 +14 1017.9 1017.5
22 25.04 ЮВ 2
{2}
5000 м дымка н/о +13.4 +12.7 96 +13 +13 1017.9 1017.5
23 25.04 ЮВ 4
{5}
6000 м дымка н/о +12.8 +12.2 96 +11 +11 1017.5 1017.1
00 26.04 В 2
{3}
7000 м дымка н/о +12.5 +11.8 95 +11 +11 1017.3 1016.9
01 26.04 ЮВ 1
{2}
7000 м дымка н/о +12.0 +11.4 96 +12 +12 1016.8 1016.4

 

Местоположение метеостанции Порторож (Словения): широта 45.52 долгота 13.57 высота над уровнем моря 95 м.

В архиве по умолчанию представлена погода в Портороже за последнюю неделю. Архивные данные за месяц целиком и за предыдущие месяцы, начиная с января 2011 года, Вы можете получить, выбрав интересующий диапазон дат из раскрывающегося списка и нажав кнопку "Ввод!".


*Определитесь, кто Вы:
робот инопланетянин человек

Внимание! Время в таблицах - всемирное. Для получения местного времени необходимо прибавить поправку, которая равна 1 ч.

Смотрите также архив погоды в соседних городах и на ближайших метеорологических станциях:

Погода в Триесте (Италия) (20 км)
Погода в Ронки-деи-Леджонари (Италия) (34 км)
Погода в Новой Горице (Словения) (43 км)
Погода в Пазине (Хорватия) (43 км)
Погода в Постойнской (Словения) (56 км)
Погода в Конкордия-Саджиттарии (Италия) (62 км)
Погода на Войско (Словения) (62 км)
Погода на Базе ВВС Риволто (Италия) (66 км)
Погода в Риеке (Хорватия) (72 км)
Погода в Пуле (Хорватия) (74 км)

Пояснения к столбцам:

Ветер - указаны скорость ветра в м/с - средняя за 10 мин, порывы в срок и между сроками (в фигурных скобках) и направление, откуда дует ветер: С - северный, СВ - северо-восточный, В - восточный, ЮВ - юго-восточный, Ю - южный, ЮЗ - юго-западный, З - западный, СЗ - северо-западный.
Видимость - горизонтальная дальность видимости в метрах или километрах. При видимости от 1 до 10 км при отсутствии осадков обычно наблюдается дымка, при ухудшении видимости до 1 км и менее - туман. В сухую погоду видимость может ухудшаться дымом, пылью или мглою.
Явления - указаны атмосферные явления, наблюдавшиеся в срок или в последний час перед сроком; фигурными скобками обозначены явления, наблюдавшиеся между сроками (за 1-3 часа до срока); квадратными скобками обозначены град или гололедные отложения с указанием их диаметра в мм.
Облачность - указаны через наклонную черту общая и нижняя облачность в баллах и высота нижней границы облаков в метрах; квадратными скобками обозначены формы облаков: Ci - перистые, Cs - перисто-слоистые, Cc - перисто-кучевые, Ac - высококучевые, As - высокослоистые, Sc - слоисто-кучевые, Ns - слоисто-дождевые, Cu - кучевые, Cb - кучево-дождевые. Подробнее классификацию облаков см. в Атласе облаков (PDF).
T - Температура воздуха - температура, измеренная на высоте 2 м над землей.
Td - Температура точки росы - температура, при понижении до которой содержащийся в воздухе водяной пар достигнет насыщения.
f - Относительная влажность воздуха - влажноcть воздуха, измеренная на высоте 2 м над землей.
Te - Эффективная температура - температура, которую ощущает одетый по сезону человек в тени. Характеристика душности погоды. При расчете учитывается влияние влажности воздуха и скорости ветра на теплоощущения человека.
Tes - Эффективная температура на солнце - температура, которую ощущает человек, с поправкой на солнечный нагрев. Характеристика знойности погоды. Зависит от высоты солнца над горизонтом, облачности и скорости ветра. Ночью, в пасмурную погоду, а также при ветре 12 м/с и более поправка равна нулю.
P - Атмосферное давление - приведенное к уровню моря атмосферное давление.
Po - Атмосферное давление - измеренное на уровне метеостанции атмосферное давление.
Tmin - Минимальная температура - минимум температуры воздуха на высоте 2 м над землей.
Tmax - Максимальная температура - максимум температуры воздуха на высоте 2 м над землей.
R - Количество осадков - Количество выпавших осадков за период времени, мм. При наведении курсора мыши на число - период времени, за который выпало указанное количество осадков.
R24 - Количество осадков - Количество выпавших осадков за 24 часа, мм.
S - Снежный покров - Высота снежного покрова, см. При наведении курсора мыши на число - состояние снежного покрова и степень покрытия местности в баллах.